AMAZONAS 2

Last updated on Tue Sep 22 2026 00:03:11 GMT+0000 (Coordinated Universal Time)

1 35942U 09054A 26264.44826417 -.00000262 00000+0 00000+0 0 9996 2 35942 2.0566 81.6939 0003319 93.1899 274.8333 1.00271291 62152
UTC large
Height (km)
Speed (km/s)
/
Latitude / Longitude
Inclination (degrees)
Orbital Period (minutes)
Azimuth
Elevation
Range (km)
Doppler Factor

Next 0 passes for location: London (51.5072 / 0.1276)

No passes found over London.
AMAZONAS 2